This is the latest recevied weather packets stored in our database for station/object N5ZKK. If no packets are shown the sender has not sent any weather packets the latest 10 day(s).
| Time | Temp. | Humidity | Pressure | Rain* | Wind** | Luminosity | Snow |
|---|---|---|---|---|---|---|---|
| 1777763341 | 25° C | 37% | 1020.1 hPa | 0 mm | - | - | - |
| 1777761541 | 24.44° C | 38% | 1020.3 hPa | 0 mm | - | - | - |
| 1777759741 | 23.89° C | 39% | 1020.4 hPa | 0 mm | - | - | - |
| 1777757941 | 23.89° C | 39% | 1020.8 hPa | 0 mm | - | - | - |
| 1777756141 | 23.33° C | 42% | 1021.3 hPa | 0 mm | - | - | - |
| 1777754341 | 23.89° C | 41% | 1021.7 hPa | 0 mm | - | - | - |
| 1777752541 | 22.78° C | 43% | 1022.2 hPa | 0 mm | - | - | - |
| 1777750741 | 23.33° C | 42% | 1022.2 hPa | 0 mm | - | - | - |
| 1777748941 | 22.78° C | 45% | 1022.5 hPa | 0 mm | - | - | - |
| 1777747141 | 22.78° C | 46% | 1022.8 hPa | 0 mm | - | - | - |
| 1777745341 | 21.11° C | 53% | 1023.3 hPa | 0 mm | - | - | - |
| 1777743541 | 21.11° C | 52% | 1023.8 hPa | 0 mm | - | - | - |
| 1777741741 | 21.11° C | 54% | 1023.9 hPa | 0 mm | - | - | - |
| 1777739941 | 20.56° C | 56% | 1024.3 hPa | 0 mm | - | - | - |
| 1777738141 | 19.44° C | 59% | 1024.6 hPa | 0 mm | - | - | - |
| 1777736341 | 18.33° C | 61% | 1024.8 hPa | 0 mm | - | - | - |
| 1777734541 | 18.33° C | 58% | 1024.7 hPa | 0 mm | - | - | - |
| 1777732741 | 16.67° C | 63% | 1024.7 hPa | 0 mm | - | - | - |
| 1777730941 | 15.56° C | 73% | 1024.6 hPa | 0 mm | - | - | - |
| 1777729141 | 12.22° C | 92% | 1024.9 hPa | 0 mm | - | - | - |
| 1777727341 | 8.89° C | 99% | 1025.1 hPa | 0 mm | - | - | - |
| 1777725541 | 7.22° C | 99% | 1025.5 hPa | 0 mm | - | - | - |
| 1777723741 | 6.11° C | 99% | 1025.3 hPa | 0 mm | - | - | - |
| 1777721941 | 6.11° C | 99% | 1024.8 hPa | 0 mm | - | - | - |
| 1777720141 | 6.11° C | 99% | 1024.7 hPa | 0 mm | - | - | - |
* Rain latest hour (hover to see other rain measurements)
** Current wind speed in m/s (hover to see current wind gust speed)